Back to catalog

STARLINK-3823

AliveCommunicationsVLEO
NORAD 52336·PAYLOAD·🇺🇸 United States

Launched Apr 29, 2022 from Cape Canaveral Space Force Station

Loading…

Next Passes (next 24 hours)

TLE

FreshSource: CelesTrak SupGP

Epoch: Sep 14, 2026, 21:23 UTC

1 52336C 22045F   26257.89145833  .00052571  00000+0  15959-2 0  2572
2 52336  53.1599  64.2286 0001223  80.3539  67.2378 15.33509923    11

Track STARLINK-3823 in real time with AllMySat

Download on the App Store